FW2222 Weather Reports


Display with metric or nautical units.
time (UTC)temp
F
wind
direction
speed
MPH
gust
MPH
rain 1hr
in
rain 24hr
in
rain mn
in
humidity
%
barometer
mb
20260504140219 58 103 1.0 2.0 0.00 0.00 0.00 41 1098.3
20260504130429 54 96 4.0 7.0 0.00 0.01 0.00 51 1098.5
20260504110520 33 67 0.0 0.0 0.00 0.01 0.00 86 1098.7
20260504081020 34 337 0.0 0.0 0.00 0.01 0.00 84 1097.8
20260504070220 37 337 0.0 0.0 0.00 0.01 0.00 79 1097.8
20260504050419 36 337 0.0 0.0 0.00 0.01 0.00 77 1098.3
20260504044520 36 337 0.0 1.0 0.00 0.01 0.00 77 1098.4
20260504043617 36 337 0.0 0.0 0.00 0.01 0.00 75 1098.4
20260504042619 36 337 0.0 0.0 0.00 0.01 0.00 75 1098.4
20260504042518 36 337 0.0 0.0 0.00 0.01 0.00 75 1098.5
20260504041519 36 337 0.0 0.0 0.00 0.01 0.00 75 1098.3
20260504041417 36 337 0.0 0.0 0.00 0.01 0.00 75 1098.3
20260504035418 36 337 0.0 0.0 0.00 0.01 0.01 75 1098.1
20260504034415 36 337 0.0 0.0 0.00 0.01 0.01 73 1098.2
20260504032416 37 337 0.0 0.0 0.00 0.01 0.01 68 1098.0
20260504031413 38 337 0.0 0.0 0.00 0.01 0.01 66 1097.8
20260504030415 39 337 0.0 0.0 0.00 0.01 0.01 64 1097.9
20260504030315 39 337 0.0 0.0 0.00 0.01 0.01 63 1097.9
20260504025414 40 337 0.0 0.0 0.00 0.01 0.01 62 1098.0
20260504024416 41 337 0.0 0.0 0.00 0.01 0.01 58 1097.9
20260504023514 41 337 0.0 0.0 0.00 0.01 0.01 59 1098.0
20260504023416 41 337 0.0 0.0 0.00 0.01 0.01 58 1097.9
20260504022416 42 337 0.0 0.0 0.00 0.01 0.01 57 1098.2
20260504021415 42 22 0.0 0.0 0.00 0.01 0.01 53 1098.0
20260504020514 42 337 0.0 0.0 0.00 0.01 0.01 52 1098.0
20260504020415 42 337 0.0 0.0 0.00 0.01 0.01 52 1098.0
20260504014416 43 202 0.0 0.0 0.00 0.01 0.01 48 1097.8
20260504013515 44 263 0.0 0.0 0.00 0.01 0.01 45 1097.7
20260504012513 45 284 1.0 3.0 0.00 0.01 0.01 44 1097.7
20260504012416 45 270 0.0 0.0 0.00 0.01 0.01 44 1097.8
20260504011415 45 292 0.0 1.0 0.00 0.01 0.01 44 1097.7
20260504010416 45 337 0.0 0.0 0.00 0.01 0.01 43 1097.6
20260504005415 44 306 1.0 3.0 0.00 0.01 0.01 41 1097.3
20260504004417 45 253 0.0 2.0 0.00 0.01 0.01 40 1097.3
20260504002613 45 292 0.0 1.0 0.00 0.01 0.01 39 1096.9
20260504001713 45 9 0.0 2.0 0.00 0.01 0.01 38 1096.7
20260504000716 46 292 0.0 1.0 0.00 0.01 0.01 37 1096.6
20260503235714 47 308 1.0 4.0 0.00 0.01 0.01 36 1096.5
20260503234716 47 20 0.0 0.0 0.00 0.01 0.01 34 1096.5
20260503233714 48 327 4.0 6.0 0.00 0.01 0.01 34 1096.4
20260503230715 48 351 2.0 4.0 0.00 0.01 0.01 34 1096.3
20260503225717 48 352 0.0 1.0 0.00 0.01 0.01 35 1096.3
20260503224716 48 323 4.0 8.0 0.00 0.01 0.01 36 1096.0
20260503223716 48 292 1.0 2.0 0.00 0.01 0.01 38 1096.3
20260503222715 48 1 1.0 4.0 0.00 0.01 0.01 38 1096.1
20260503221714 48 343 2.0 6.0 0.00 0.01 0.01 38 1096.3
20260503220715 49 177 0.0 0.0 0.00 0.01 0.01 38 1096.5
20260503215814 49 328 3.0 4.0 0.00 0.01 0.01 38 1096.3
20260503214814 49 359 5.0 11.0 0.00 0.01 0.01 39 1096.3
20260503213713 49 341 5.0 11.0 0.00 0.01 0.01 38 1096.1
20260503211714 49 26 4.0 8.0 0.00 0.01 0.01 39 1096.3
20260503210714 49 319 3.0 6.0 0.00 0.01 0.01 40 1096.1
20260503205713 48 345 3.0 7.0 0.00 0.01 0.01 39 1096.1
20260503205614 49 339 3.0 9.0 0.00 0.01 0.01 39 1096.1
20260503204612 48 343 5.0 11.0 0.00 0.01 0.01 40 1096.3
20260503203614 48 357 6.0 12.0 0.00 0.01 0.01 40 1096.1
20260503202614 48 354 4.0 7.0 0.00 0.01 0.01 39 1096.1
20260503201614 48 354 6.0 12.0 0.00 0.01 0.01 39 1096.3
20260503200616 47 340 6.0 10.0 0.00 0.01 0.01 40 1096.1
20260503195615 47 351 7.0 14.0 0.00 0.01 0.01 41 1096.3
20260503194613 47 335 5.0 11.0 0.00 0.01 0.01 43 1096.3
20260503193613 48 315 5.0 12.0 0.00 0.01 0.01 42 1096.3
20260503192713 47 325 4.0 11.0 0.00 0.01 0.01 42 1096.3
20260503190814 47 343 7.0 14.0 0.00 0.01 0.01 43 1096.3
20260503185815 47 27 3.0 6.0 0.00 0.01 0.01 43 1096.4
20260503184815 47 340 6.0 11.0 0.00 0.01 0.01 42 1096.1
20260503184715 47 339 4.0 8.0 0.00 0.01 0.01 41 1096.1
20260503183716 47 330 5.0 9.0 0.00 0.01 0.01 41 1096.1
20260503182814 47 343 7.0 13.0 0.00 0.01 0.01 42 1096.1
20260503181816 47 343 5.0 11.0 0.00 0.01 0.01 42 1096.1
20260503181714 47 359 4.0 9.0 0.00 0.01 0.01 42 1096.3
20260503180813 47 355 3.0 7.0 0.00 0.01 0.01 42 1096.1
20260503175814 47 7 1.0 4.0 0.00 0.01 0.01 42 1096.2
20260503174814 47 347 6.0 12.0 0.00 0.01 0.01 42 1096.1
20260503172914 45 4 3.0 7.0 0.00 0.01 0.01 47 1096.3
20260503171914 45 330 4.0 9.0 0.00 0.01 0.01 47 1096.3
20260503170914 46 339 4.0 10.0 0.00 0.01 0.01 46 1096.4